Tracking 17636 objects as of 30-April-2016
HD Live streaming from Space Station
objects crossing your sky now

IRIDIUM 33 DEB

Track IRIDIUM 33 DEB now!
10-day predictions


NORAD ID: 33869
Int'l Code: 1997-051AN
Perigee: 722.6 km
Apogee: 832.7 km
Inclination: 86.4 °
Period: 100.3 minutes
Semi major axis: 7148 km
RCS: 0.08 m2 (small)
Launch date: September 14, 1997
Source: United States (US)
Launch site: TYURATAM MISSILE AND SPACE COMPLEX (TTMTR)

Note: This is SATELLITE DEBRIS
Your satellite tracking list
Your tracking list is empty





NASA's NSSDC Master Catalog

Two Line Element Set (TLE):
1 33869U 97051AN  16120.75610319 +.00003100 +00000-0 +10179-2 0  9997
2 33869 086.3703 116.2107 0077046 283.3954 075.8663 14.36378716374177
Source of the keplerian elements: AFSPC

N2YO: 317